Weather History for KOTG - January, 2013

Change the Weather History Date:

Sunday, January 6, 2013

  Actual Average Record
Temperature  
Mean Temperature 16 °F -  
Max Temperature 26 °F 22 °F - (-1)
Min Temperature 5 °F 8 °F - (-1)
Degree Days  
Heating Degree Days 50    
Moisture  
Dew Point 7 °F    
Average Humidity 72    
Maximum Humidity 85    
Minimum Humidity 62    
Precipitation  
Precipitation 0.00 in - - ()
Sea Level Pressure  
Sea Level Pressure 30.12 in    
Wind  
Wind Speed 12 mph (SW)    
Max Wind Speed 29 mph    
Max Gust Speed 34 mph    
Visibility 10 miles    
Events      
Averages and records for this station are not official NWS values.
T = Trace of Precipitation, MM = Missing Value Source: NWS Daily Summary

Daily Weather History Graph

Daily Weather History Graph

Search for Another Location

Airport or City:

Trip Planner

Search our weather history database for the weather conditions in past years. The results will help you decide how hot, cold, wet, or windy it might be!

Date:

Astronomy

Jan. 06, 2013 Rise Set
Actual Time 7:55 AM CST 5:01 PM CST
Civil Twilight 7:23 AM CST 5:33 PM CST
Nautical Twilight 6:47 AM CST 6:09 PM CST
Astronomical Twilight 6:12 AM CST 6:44 PM CST
Moon 2:06 AM CST (1/6) 12:32 PM CST (1/6)
Length of Visible Light 10h 10m
Length of Day
9h 05m
Waning Crescent, 33% of the Moon is Illuminated
Jan 6
Waning Crescent
Jan 11
New
Jan 18
First Quarter
Jan 26
Full
Feb 3
Last Quarter

Hourly Weather History & Observations

Time (CST) Temp. Windchill Dew Point Humidity Pressure Visibility Wind Dir Wind Speed Gust Speed Precip Events Conditions
12:15 AM 12.2 °F -3.7 °F 3.2 °F 67% 30.10 in 10.0 mi NW 15.0 mph - N/A   Clear
12:35 AM 12.2 °F -4.8 °F 1.4 °F 62% 30.10 in 10.0 mi NW 17.3 mph - N/A   Clear
12:55 AM 12.2 °F -3.7 °F 1.4 °F 62% 30.09 in 10.0 mi NW 15.0 mph - N/A   Clear
1:15 AM 12.2 °F -4.3 °F 1.4 °F 62% 30.10 in 10.0 mi NW 16.1 mph - N/A   Clear
1:35 AM 12.2 °F -2.5 °F 1.4 °F 62% 30.11 in 10.0 mi WNW 12.7 mph - N/A   Clear
1:55 AM 10.4 °F -3.3 °F -0.4 °F 62% 30.11 in 10.0 mi WNW 10.4 mph - N/A   Clear
2:15 AM 8.6 °F -5.5 °F 1.4 °F 73% 30.12 in 10.0 mi West 10.4 mph - N/A   Clear
2:35 AM 8.6 °F -3.7 °F 1.4 °F 73% 30.12 in 10.0 mi WNW 8.1 mph - N/A   Clear
2:55 AM 8.6 °F -4.7 °F 1.4 °F 73% 30.12 in 10.0 mi WNW 9.2 mph - N/A   Clear
3:15 AM 8.6 °F -4.7 °F 1.4 °F 73% 30.13 in 10.0 mi West 9.2 mph - N/A   Clear
3:35 AM 8.6 °F -4.7 °F 1.4 °F 73% 30.13 in 10.0 mi West 9.2 mph - N/A   Clear
3:55 AM 6.8 °F -4.8 °F 1.4 °F 79% 30.13 in 10.0 mi West 6.9 mph - N/A   Clear
4:15 AM 5.0 °F -9.1 °F -2.2 °F 72% 30.13 in 10.0 mi West 9.2 mph - N/A   Clear
4:35 AM 5.0 °F -9.1 °F -2.2 °F 72% 30.13 in 10.0 mi West 9.2 mph - N/A   Clear
4:55 AM 6.8 °F -6.9 °F 1.4 °F 79% 30.12 in 10.0 mi West 9.2 mph - N/A   Scattered Clouds
5:15 AM 6.8 °F -6.9 °F 1.4 °F 79% 30.12 in 10.0 mi WSW 9.2 mph - N/A   Overcast
5:35 AM 10.4 °F -4.1 °F 5.0 °F 79% 30.12 in 9.0 mi WSW 11.5 mph - N/A   Overcast
5:55 AM 10.4 °F -6.0 °F 6.8 °F 85% 30.13 in 10.0 mi WSW 15.0 mph - N/A   Overcast
6:15 AM 10.4 °F -0.4 °F 5.0 °F 79% 30.14 in 10.0 mi West 6.9 mph - N/A   Overcast
6:35 AM 12.2 °F 0.7 °F 6.8 °F 79% 30.15 in 10.0 mi West 8.1 mph - N/A   Overcast
6:55 AM 10.4 °F -1.5 °F 5.0 °F 79% 30.15 in 10.0 mi West 8.1 mph - N/A   Mostly Cloudy
7:15 AM 8.6 °F -2.6 °F 1.4 °F 73% 30.16 in 10.0 mi West 6.9 mph - N/A   Clear
7:35 AM 6.8 °F -3.5 °F 1.4 °F 79% 30.16 in 10.0 mi West 5.8 mph - N/A   Clear
7:55 AM 6.8 °F -5.9 °F -0.4 °F 72% 30.16 in 10.0 mi West 8.1 mph - N/A   Clear
8:15 AM 6.8 °F -7.8 °F -0.4 °F 72% 30.16 in 10.0 mi West 10.4 mph - N/A   Clear
8:35 AM 6.8 °F -5.9 °F -0.4 °F 72% 30.16 in 10.0 mi West 8.1 mph - N/A   Clear
8:55 AM 6.8 °F -7.8 °F 1.4 °F 79% 30.18 in 10.0 mi West 10.4 mph - N/A   Clear
9:15 AM 6.8 °F -4.8 °F 1.4 °F 79% 30.19 in 10.0 mi West 6.9 mph - N/A   Clear
9:35 AM 8.6 °F -1.3 °F 3.2 °F 79% 30.20 in 10.0 mi West 5.8 mph - N/A   Clear
9:55 AM 10.4 °F -2.4 °F 3.2 °F 73% 30.20 in 10.0 mi WSW 9.2 mph - N/A   Clear
10:15 AM 10.4 °F -2.4 °F 3.2 °F 73% 30.20 in 10.0 mi WSW 9.2 mph - N/A   Clear
10:35 AM 12.2 °F -0.2 °F 6.8 °F 79% 30.21 in 10.0 mi WSW 9.2 mph - N/A   Clear
10:55 AM 12.2 °F 2.9 °F 6.8 °F 79% 30.21 in 10.0 mi WSW 5.8 mph - N/A   Clear
11:15 AM 12.2 °F 4.3 °F 6.8 °F 79% 30.21 in 10.0 mi West 4.6 mph - N/A   Clear
11:35 AM 14.0 °F 5.1 °F 6.8 °F 73% 30.20 in 10.0 mi WSW 5.8 mph - N/A   Clear
11:55 AM 14.0 °F 5.1 °F 6.8 °F 73% 30.19 in 10.0 mi WSW 5.8 mph - N/A   Clear
12:15 PM 15.8 °F 5.1 °F 8.6 °F 73% 30.19 in 10.0 mi West 8.1 mph - N/A   Clear
12:35 PM 15.8 °F 7.2 °F 8.6 °F 73% 30.18 in 10.0 mi WSW 5.8 mph - N/A   Clear
12:55 PM 15.8 °F - 8.6 °F 73% 30.17 in 10.0 mi Calm Calm - N/A   Clear
1:15 PM 17.6 °F 12.3 °F 8.6 °F 68% 30.17 in 10.0 mi SW 3.5 mph - N/A   Clear
1:35 PM 19.4 °F 11.5 °F 10.4 °F 68% 30.16 in 10.0 mi South 5.8 mph - N/A   Clear
1:55 PM 17.6 °F 7.3 °F 10.4 °F 73% 30.16 in 10.0 mi SW 8.1 mph - N/A   Clear
2:15 PM 17.6 °F 7.3 °F 8.6 °F 68% 30.16 in 10.0 mi SW 8.1 mph - N/A   Clear
2:35 PM 17.6 °F 7.3 °F 8.6 °F 68% 30.16 in 10.0 mi SW 8.1 mph - N/A   Clear
2:55 PM 17.6 °F 7.3 °F 10.4 °F 73% 30.14 in 10.0 mi SSW 8.1 mph - N/A   Clear
3:15 PM 17.6 °F 5.7 °F 10.4 °F 73% 30.13 in 10.0 mi SSW 10.4 mph - N/A   Clear
3:35 PM 19.4 °F 7.2 °F 10.4 °F 68% 30.14 in 10.0 mi SSW 11.5 mph - N/A   Clear
3:55 PM 19.4 °F 7.2 °F 10.4 °F 68% 30.14 in 10.0 mi SSW 11.5 mph - N/A   Clear
4:15 PM 19.4 °F 7.2 °F 10.4 °F 68% 30.14 in 10.0 mi SSW 11.5 mph - N/A   Clear
4:35 PM 17.6 °F 5.7 °F 10.4 °F 73% 30.13 in 10.0 mi SSW 10.4 mph - N/A   Clear
4:55 PM 17.6 °F 4.3 °F 10.4 °F 73% 30.12 in 10.0 mi SSW 12.7 mph - N/A   Clear
5:15 PM 17.6 °F 5.0 °F 10.4 °F 73% 30.12 in 10.0 mi SSW 11.5 mph - N/A   Clear
5:35 PM 17.6 °F 4.3 °F 10.4 °F 73% 30.11 in 10.0 mi South 12.7 mph - N/A   Clear
5:55 PM 17.6 °F 5.0 °F 10.4 °F 73% 30.11 in 10.0 mi South 11.5 mph - N/A   Clear
6:15 PM 17.6 °F 5.7 °F 10.4 °F 73% 30.10 in 10.0 mi South 10.4 mph - N/A   Clear
6:35 PM 17.6 °F 5.7 °F 10.4 °F 73% 30.09 in 10.0 mi South 10.4 mph - N/A   Clear
6:55 PM 17.6 °F 3.7 °F 10.4 °F 73% 30.09 in 10.0 mi South 13.8 mph - N/A   Clear
7:15 PM 17.6 °F 3.7 °F 10.4 °F 73% 30.08 in 10.0 mi South 13.8 mph - N/A   Clear
7:35 PM 19.4 °F 5.0 °F 10.4 °F 68% 30.07 in 10.0 mi South 16.1 mph - N/A   Clear
7:55 PM 17.6 °F 2.2 °F 10.4 °F 73% 30.06 in 10.0 mi South 17.3 mph - N/A   Clear
8:15 PM 19.4 °F 4.1 °F 10.4 °F 68% 30.05 in 10.0 mi South 18.4 mph - N/A   Clear
8:35 PM 19.4 °F 3.6 °F 10.4 °F 68% 30.03 in 10.0 mi South 19.6 mph - N/A   Clear
8:55 PM 17.6 °F 2.2 °F 10.4 °F 73% 30.03 in 10.0 mi South 17.3 mph - N/A   Clear
9:35 PM 17.6 °F 1.3 °F 10.4 °F 73% 30.00 in 10.0 mi South 19.6 mph - N/A   Clear
9:55 PM 19.4 °F 4.1 °F 12.2 °F 74% 30.00 in 10.0 mi South 18.4 mph - N/A   Clear
10:15 PM 23.0 °F 8.0 °F 14.0 °F 68% 29.99 in 10.0 mi South 20.7 mph 25.3 mph N/A   Clear
10:35 PM 24.8 °F 9.6 °F 15.8 °F 69% 29.98 in 10.0 mi South 23.0 mph 29.9 mph N/A   Clear
10:55 PM 24.8 °F 9.6 °F 15.8 °F 69% 29.97 in 10.0 mi South 23.0 mph 32.2 mph N/A   Clear
11:35 PM 26.6 °F 10.6 °F 15.8 °F 64% 29.93 in 10.0 mi South 28.8 mph 34.5 mph N/A   Clear
11:55 PM 26.6 °F 10.6 °F 15.8 °F 64% 29.92 in 10.0 mi South 28.8 mph 34.5 mph N/A   Clear